User: anonymous   Login
Location: State Camp
(41.2367°N, 77.7828°W)
Time: 13:49:10
(UTC-04:00)
Language:

Cosmos 1674 Rocket - Orbit

View from above orbital plane
View from above orbital plane
View from above satellite
View from above satellite

Ground track
Ground track

The orbit data is extracted from the following two-line orbital elements,

1 15945U 85069B   14304.13484316  .00000538  00000-0  62388-4 0  8068
2 15945 082.5255 311.9211 0019602 205.3900 220.9958 14.83454564578670
Epoch (UTC): 31 October 2014 03:14:10
Eccentricity: 0.0019602
inclination: 82.5255°
perigee height: 605 km
apogee height: 632 km
right ascension of ascending node: 311.9211°
argument of perigee: 205.3900°
revolutions per day: 14.83454564
mean anomaly at epoch: 220.9958°
orbit number at epoch: 57867

The dashed part of the orbit path shows where the satellite is in the earth's shadow,  

DLR